Regional Weather Roundup
Issued by NWS

Home | Current Version | Previous Version | Text Only | Print | Product List | Glossary Off
Versions: 1 2 3 4 5 6 7 8 9 10 11 12 13 14 15 16 17 18 19 20 21 22 23 24 25 26 27 28 29 30 31 32 33 34 35 36 37 38 39 40 41 42 43 44 45 46 47 48 49 50

000
ASUS43 KLSX 051207
RWRMO

WEATHER SUMMARY FOR MISSOURI
NATIONAL WEATHER SERVICE SPRINGFIELD MO
700 AM CDT THU MAY 05 2016

NOTE: "FAIR" INDICATES FEW OR NO CLOUDS BELOW 12,000 FEET WITH NO
       SIGNIFICANT WEATHER AND/OR OBSTRUCTIONS TO VISIBILITY.
       CURRENT SKY AND/OR WEATHER CONDITIONS ARE NOT AVAILABLE FOR
       CHILLICOTHE AND FARMINGTON.

MOZ001>031-035>038-043-044-053-054-051300-
...NORTHERN AND WESTERN MISSOURI...

CITY           SKY/WX    TMP DP  RH WIND       PRES   REMARKS
KANSAS CTY INT PTCLDY    48  40  73 NW6       30.05R
6HR MIN TEMP:  47; 6HR MAX TEMP:  54;

KANSAS C DTWN  CLEAR     49  44  83 CALM      30.04R
6HR MIN TEMP:  46; 6HR MAX TEMP:  53;

LEE`S SUMMIT   CLEAR     49  40  71 NW6       30.04R
6HR MIN TEMP:  47; 6HR MAX TEMP:  55;

ST JOSEPH      CLEAR     42  41  96 NW3       30.06R
6HR MIN TEMP:  41; 6HR MAX TEMP:  49;

CHILLICOTHE      N/A     45  41  86 CALM      30.05R
6HR MIN TEMP:  42; 6HR MAX TEMP:  53;

KIRKSVILLE     CLEAR     44  34  67 N6        30.03R
6HR MIN TEMP:  41; 6HR MAX TEMP:  50;


$$
MOZ066>068-077>081-088>096-101>105-051300-
...SOUTHWEST MISSOURI...

CITY           SKY/WX    TMP DP  RH WIND       PRES   REMARKS
SPRINGFIELD    CLEAR     48  37  65 W3        30.01R
6HR MIN TEMP:  43; 6HR MAX TEMP:  50;

JOPLIN         CLEAR     44  41  89 CALM      30.05R
6HR MIN TEMP:  42; 6HR MAX TEMP:  49;

BRANSON        CLEAR     46  39  76 SW6       30.02R

$$
MOZ032>034-039>042-045>050-055>058-069>072-051300-
...CENTRAL MISSOURI...

CITY           SKY/WX    TMP DP  RH WIND       PRES   REMARKS
COLUMBIA       CLEAR     46  39  76 NW5       30.00R
6HR MIN TEMP:  43; 6HR MAX TEMP:  50;

JEFFERSON CITY CLEAR     44  40  85 NW3       30.00R
6HR MIN TEMP:  43; 6HR MAX TEMP:  47;

ROLLA          CLEAR     46  38  73 NW6       29.96R
6HR MIN TEMP:  43; 6HR MAX TEMP:  50;

SEDALIA        CLEAR     48  40  73 NW6       30.03R
6HR MIN TEMP:  47; 6HR MAX TEMP:  53;

WHITEMAN AFB   CLEAR     47  42  83 N2        30.02R
WARRENSBURG    CLEAR     46  37  71 NW3       30.03R
OSAGE BEACH    CLEAR     43  34  70 W3        30.00R

$$
MOZ051-052-059>065-051300-
...EAST CENTRAL MISSOURI...

CITY           SKY/WX    TMP DP  RH WIND       PRES   REMARKS
ST LOUIS INTL  SUNNY     49  38  65 N10       29.97R
6HR MIN TEMP:  47; 6HR MAX TEMP:  52;

SPIRIT OF STL  SUNNY     49  39  68 N6        29.97R
6HR MIN TEMP:  43; 6HR MAX TEMP:  51;

ST CHARLES     SUNNY     47  38  71 N5        29.97R
6HR MIN TEMP:  46; 6HR MAX TEMP:  52;


$$
MOZ072>076-082>087-097>100-106>115-051300-
...SOUTH CENTRAL AND SOUTHEAST MISSOURI...

CITY           SKY/WX    TMP DP  RH WIND       PRES   REMARKS
CAPE GIRARDEAU SUNNY     46  41  82 NW7       29.91R
6HR MIN TEMP:  42; 6HR MAX TEMP:  47;

FARMINGTON     SUNNY     49  37  63 N8        29.95R
6HR MIN TEMP:  46; 6HR MAX TEMP:  52;

POPLAR BLUFF   SUNNY     48  38  68 NW7       29.93R
6HR MIN TEMP:  46; 6HR MAX TEMP:  52;

WEST PLAINS    CLEAR     49  36  61 NW7       29.98R
6HR MIN TEMP:  44; 6HR MAX TEMP:  50;


$$


USA.gov is the U.S. government's official web portal to all federal, state and local government web resources and services.